Time,TemperatureF,DewpointF,PressureIn,WindDirection,WindDirectionDegrees,WindSpeedMPH,WindSpeedGustMPH,Humidity,HourlyPrecipIn,Conditions,Clouds,dailyrainin,SoftwareType,DateUTC
2013-03-26 00:00:00,50.4,39.5,30.06,NNW,341,0.0,0.0,66,0.00,,,0.00,Wunderground v.1.15,2013-03-26 04:00:00,
2013-03-26 00:05:00,50.7,39.7,30.06,NNW,345,0.0,1.0,66,0.00,,,0.00,Wunderground v.1.15,2013-03-26 04:05:00,
2013-03-26 00:09:00,51.0,39.6,30.06,NNW,345,0.0,1.0,65,0.00,,,0.00,Wunderground v.1.15,2013-03-26 04:09:00,
2013-03-26 00:15:00,51.1,39.7,30.06,SW,236,0.0,1.0,65,0.00,,,0.00,Wunderground v.1.15,2013-03-26 04:15:00,
2013-03-26 00:25:00,51.3,39.9,30.06,SSW,195,0.0,1.0,65,0.00,,,0.00,Wunderground v.1.15,2013-03-26 04:25:00,
2013-03-26 00:35:00,51.4,40.0,30.06,West,278,0.0,0.0,65,0.00,,,0.00,Wunderground v.1.15,2013-03-26 04:35:00,
2013-03-26 00:45:00,51.1,40.1,30.06,NW,308,0.0,0.0,66,0.00,,,0.00,Wunderground v.1.15,2013-03-26 04:45:00,
2013-03-26 00:54:00,51.0,40.4,30.07,West,267,0.0,0.0,67,0.00,,,0.00,Wunderground v.1.15,2013-03-26 04:54:00,
2013-03-26 01:00:00,51.0,40.8,30.06,NW,326,0.0,0.0,68,0.00,,,0.00,Wunderground v.1.15,2013-03-26 05:00:00,
2013-03-26 01:10:00,51.0,40.8,30.07,NNW,343,0.0,1.0,68,0.00,,,0.00,Wunderground v.1.15,2013-03-26 05:10:00,
2013-03-26 01:15:00,50.9,40.7,30.07,WSW,257,0.0,1.0,68,0.00,,,0.00,Wunderground v.1.15,2013-03-26 05:15:00,
2013-03-26 01:25:00,50.8,41.0,30.07,WSW,249,0.0,1.0,69,0.00,,,0.00,Wunderground v.1.15,2013-03-26 05:25:00,
2013-03-26 01:30:00,50.6,40.8,30.07,WSW,249,0.0,0.0,69,0.00,,,0.00,Wunderground v.1.15,2013-03-26 05:30:00,
2013-03-26 01:40:00,50.5,40.7,30.07,West,281,0.0,0.0,69,0.00,,,0.00,Wunderground v.1.15,2013-03-26 05:40:00,
2013-03-26 01:49:00,50.4,40.2,30.07,WNW,301,0.0,0.0,68,0.00,,,0.00,Wunderground v.1.15,2013-03-26 05:49:00,
2013-03-26 01:55:00,50.4,39.5,30.08,WSW,248,0.0,0.0,66,0.00,,,0.00,Wunderground v.1.15,2013-03-26 05:55:00,
2013-03-26 02:05:00,50.8,38.2,30.08,SW,222,0.0,1.0,62,0.00,,,0.00,Wunderground v.1.15,2013-03-26 06:05:00,
2013-03-26 02:15:00,51.4,36.7,30.08,NNW,336,0.0,1.0,57,0.00,,,0.00,Wunderground v.1.15,2013-03-26 06:15:00,
2013-03-26 02:25:00,51.8,34.2,30.08,NNW,340,0.0,3.0,51,0.00,,,0.00,Wunderground v.1.15,2013-03-26 06:25:00,
2013-03-26 02:34:00,52.2,31.5,30.08,WNW,290,1.0,2.0,45,0.00,,,0.00,Wunderground v.1.15,2013-03-26 06:34:00,
2013-03-26 02:40:00,52.4,31.7,30.08,NNW,327,1.0,3.0,45,0.00,,,0.00,Wunderground v.1.15,2013-03-26 06:40:00,
2013-03-26 02:50:00,52.2,30.4,30.08,NW,321,0.0,0.0,43,0.00,,,0.00,Wunderground v.1.15,2013-03-26 06:50:00,
2013-03-26 03:00:00,52.1,29.7,30.08,WNW,283,0.0,0.0,42,0.00,,,0.00,Wunderground v.1.15,2013-03-26 07:00:00,
2013-03-26 03:10:00,51.9,28.9,30.08,NW,325,1.0,2.0,41,0.00,,,0.00,Wunderground v.1.15,2013-03-26 07:10:00,
2013-03-26 03:20:00,51.4,28.5,30.08,NW,316,1.0,1.0,41,0.00,,,0.00,Wunderground v.1.15,2013-03-26 07:20:00,
2013-03-26 03:25:00,51.0,28.1,30.09,NW,322,0.0,2.0,41,0.00,,,0.00,Wunderground v.1.15,2013-03-26 07:25:00,
2013-03-26 03:35:00,50.6,28.3,30.08,NW,325,1.0,1.0,42,0.00,,,0.00,Wunderground v.1.15,2013-03-26 07:35:00,
2013-03-26 03:44:00,50.0,27.8,30.08,NNW,347,1.0,3.0,42,0.00,,,0.00,Wunderground v.1.15,2013-03-26 07:44:00,
2013-03-26 03:50:00,49.7,27.5,30.08,WNW,297,1.0,1.0,42,0.00,,,0.00,Wunderground v.1.15,2013-03-26 07:50:00,
2013-03-26 04:00:00,49.0,26.9,30.09,NNW,327,2.0,3.0,42,0.00,,,0.00,Wunderground v.1.15,2013-03-26 08:00:00,
2013-03-26 04:10:00,48.7,24.8,30.09,NNW,328,3.0,8.0,39,0.00,,,0.00,Wunderground v.1.15,2013-03-26 08:10:00,
2013-03-26 04:20:00,48.5,24.0,30.10,NNW,334,4.0,6.0,38,0.00,,,0.00,Wunderground v.1.15,2013-03-26 08:20:00,
2013-03-26 04:30:00,48.1,24.3,30.10,West,280,3.0,5.0,39,0.00,,,0.00,Wunderground v.1.15,2013-03-26 08:30:00,
2013-03-26 04:40:00,47.5,24.9,30.10,NNW,339,1.0,1.0,41,0.00,,,0.00,Wunderground v.1.15,2013-03-26 08:40:00,
2013-03-26 04:45:00,47.2,24.7,30.10,WNW,287,1.0,1.0,41,0.00,,,0.00,Wunderground v.1.15,2013-03-26 08:45:00,
2013-03-26 04:55:00,46.6,25.3,30.10,NNW,347,1.0,1.0,43,0.00,,,0.00,Wunderground v.1.15,2013-03-26 08:55:00,
2013-03-26 05:04:00,46.0,25.3,30.10,NW,311,0.0,10.0,44,0.00,,,0.00,Wunderground v.1.15,2013-03-26 09:04:00,
2013-03-26 05:10:00,45.7,25.5,30.10,NNW,339,0.0,10.0,45,0.00,,,0.00,Wunderground v.1.15,2013-03-26 09:10:00,
2013-03-26 05:20:00,44.9,25.3,30.11,WSW,243,0.0,10.0,46,0.00,,,0.00,Wunderground v.1.15,2013-03-26 09:20:00,
2013-03-26 05:30:00,43.8,25.4,30.11,SW,233,0.0,0.0,48,0.00,,,0.00,Wunderground v.1.15,2013-03-26 09:30:00,
2013-03-26 05:40:00,43.0,25.6,30.11,NW,308,0.0,0.0,50,0.00,,,0.00,Wunderground v.1.15,2013-03-26 09:40:00,
2013-03-26 05:50:00,42.7,25.3,30.11,WNW,301,0.0,0.0,50,0.00,,,0.00,Wunderground v.1.15,2013-03-26 09:50:00,
2013-03-26 05:55:00,42.7,25.8,30.11,SW,233,0.0,0.0,51,0.00,,,0.00,Wunderground v.1.15,2013-03-26 09:55:00,
2013-03-26 06:05:00,42.9,26.0,30.12,NNW,340,0.0,1.0,51,0.00,,,0.00,Wunderground v.1.15,2013-03-26 10:05:00,
2013-03-26 06:15:00,43.1,25.7,30.12,NW,304,0.0,6.0,50,0.00,,,0.00,Wunderground v.1.15,2013-03-26 10:15:00,
2013-03-26 06:20:00,43.2,25.8,30.12,NW,326,0.0,6.0,50,0.00,,,0.00,Wunderground v.1.15,2013-03-26 10:20:00,
2013-03-26 06:30:00,42.7,25.8,30.13,West,270,0.0,0.0,51,0.00,,,0.00,Wunderground v.1.15,2013-03-26 10:30:00,
2013-03-26 06:39:00,41.7,25.8,30.13,WNW,301,0.0,0.0,53,0.00,,,0.00,Wunderground v.1.15,2013-03-26 10:39:00,
2013-03-26 06:45:00,41.0,26.1,30.13,WNW,300,0.0,0.0,55,0.00,,,0.00,Wunderground v.1.15,2013-03-26 10:45:00,
2013-03-26 06:55:00,40.1,26.1,30.13,WSW,251,0.0,0.0,57,0.00,,,0.00,Wunderground v.1.15,2013-03-26 10:55:00,
2013-03-26 07:05:00,39.8,26.2,30.14,SW,231,0.0,4.0,58,0.00,,,0.00,Wunderground v.1.15,2013-03-26 11:05:00,
2013-03-26 07:15:00,39.7,26.1,30.14,WSW,252,0.0,4.0,58,0.00,,,0.00,Wunderground v.1.15,2013-03-26 11:15:00,
2013-03-26 07:24:00,39.7,26.5,30.15,NNW,328,0.0,4.0,59,0.00,,,0.00,Wunderground v.1.15,2013-03-26 11:24:00,
2013-03-26 07:30:00,39.4,26.7,30.15,WSW,246,0.0,0.0,60,0.00,,,0.00,Wunderground v.1.15,2013-03-26 11:30:00,
2013-03-26 07:40:00,39.3,27.0,30.16,NW,315,0.0,0.0,61,0.00,,,0.00,Wunderground v.1.15,2013-03-26 11:40:00,
2013-03-26 07:50:00,40.0,27.2,30.16,WSW,255,0.0,0.0,60,0.00,,,0.00,Wunderground v.1.15,2013-03-26 11:50:00,
2013-03-26 08:00:00,41.1,27.9,30.16,NW,317,0.0,0.0,59,0.00,,,0.00,Wunderground v.1.15,2013-03-26 12:00:00,
2013-03-26 08:10:00,42.3,28.1,30.16,NNW,327,0.0,2.0,57,0.00,,,0.00,Wunderground v.1.15,2013-03-26 12:10:00,
2013-03-26 08:20:00,43.3,28.2,30.17,SW,232,1.0,1.0,55,0.00,,,0.00,Wunderground v.1.15,2013-03-26 12:20:00,
2013-03-26 08:30:00,44.2,29.0,30.17,WSW,245,1.0,2.0,55,0.00,,,0.00,Wunderground v.1.15,2013-03-26 12:30:00,
2013-03-26 08:40:00,45.1,29.0,30.18,WNW,284,2.0,2.0,53,0.00,,,0.00,Wunderground v.1.15,2013-03-26 12:40:00,
2013-03-26 08:50:00,45.7,28.6,30.18,NNE,25,2.0,2.0,51,0.00,,,0.00,Wunderground v.1.15,2013-03-26 12:50:00,
2013-03-26 08:59:00,46.4,29.2,30.19,NNW,330,2.0,3.0,51,0.00,,,0.00,Wunderground v.1.15,2013-03-26 12:59:00,
2013-03-26 09:05:00,46.6,28.9,30.19,SW,232,3.0,3.0,50,0.00,,,0.00,Wunderground v.1.15,2013-03-26 13:05:00,
2013-03-26 09:15:00,47.1,29.4,30.19,NNE,15,3.0,3.0,50,0.00,,,0.00,Wunderground v.1.15,2013-03-26 13:15:00,
2013-03-26 09:25:00,47.9,29.6,30.19,WSW,250,3.0,3.0,49,0.00,,,0.00,Wunderground v.1.15,2013-03-26 13:25:00,
2013-03-26 09:35:00,48.2,28.9,30.19,WNW,296,4.0,7.0,47,0.00,,,0.00,Wunderground v.1.15,2013-03-26 13:35:00,
2013-03-26 09:45:00,48.7,28.8,30.20,West,262,3.0,4.0,46,0.00,,,0.00,Wunderground v.1.15,2013-03-26 13:45:00,
2013-03-26 09:50:00,49.7,29.2,30.19,NW,326,2.0,11.0,45,0.00,,,0.00,Wunderground v.1.15,2013-03-26 13:50:00,
2013-03-26 10:00:00,49.5,27.9,30.20,NW,316,4.0,4.0,43,0.00,,,0.00,Wunderground v.1.15,2013-03-26 14:00:00,
2013-03-26 10:10:00,49.8,28.2,30.19,NW,317,3.0,7.0,43,0.00,,,0.00,Wunderground v.1.15,2013-03-26 14:10:00,
2013-03-26 10:20:00,50.4,27.0,30.19,NNW,329,3.0,9.0,40,0.00,,,0.00,Wunderground v.1.15,2013-03-26 14:20:00,
2013-03-26 10:30:00,50.3,26.3,30.20,NNW,335,4.0,4.0,39,0.00,,,0.00,Wunderground v.1.15,2013-03-26 14:30:00,
2013-03-26 10:39:00,52.0,25.8,30.19,SW,224,3.0,4.0,36,0.00,,,0.00,Wunderground v.1.15,2013-03-26 14:39:00,
2013-03-26 10:45:00,52.1,25.9,30.19,SW,224,3.0,5.0,36,0.00,,,0.00,Wunderground v.1.15,2013-03-26 14:45:00,
2013-03-26 10:55:00,52.5,26.3,30.19,SW,225,3.0,4.0,36,0.00,,,0.00,Wunderground v.1.15,2013-03-26 14:55:00,
2013-03-26 11:05:00,53.6,26.6,30.19,North,351,3.0,14.0,35,0.00,,,0.00,Wunderground v.1.15,2013-03-26 15:05:00,
2013-03-26 11:15:00,54.4,27.3,30.20,South,186,2.0,14.0,35,0.00,,,0.00,Wunderground v.1.15,2013-03-26 15:15:00,
2013-03-26 11:24:00,54.8,24.7,30.20,NW,323,3.0,14.0,31,0.00,,,0.00,Wunderground v.1.15,2013-03-26 15:24:00,
2013-03-26 11:30:00,54.9,24.0,30.20,WNW,288,3.0,4.0,30,0.00,,,0.00,Wunderground v.1.15,2013-03-26 15:30:00,
2013-03-26 11:40:00,55.5,26.1,30.19,SW,222,3.0,3.0,32,0.00,,,0.00,Wunderground v.1.15,2013-03-26 15:40:00,
2013-03-26 11:50:00,55.2,24.3,30.19,WNW,298,4.0,4.0,30,0.00,,,0.00,Wunderground v.1.15,2013-03-26 15:50:00,
2013-03-26 12:00:00,55.7,22.2,30.19,NNE,19,4.0,4.0,27,0.00,,,0.00,Wunderground v.1.15,2013-03-26 16:00:00,
2013-03-26 12:10:00,56.5,22.9,30.19,NNW,334,3.0,10.0,27,0.00,,,0.00,Wunderground v.1.15,2013-03-26 16:10:00,
2013-03-26 12:15:00,56.0,24.2,30.19,NNW,339,3.0,10.0,29,0.00,,,0.00,Wunderground v.1.15,2013-03-26 16:15:00,
2013-03-26 12:25:00,57.4,23.7,30.19,WNW,283,3.0,3.0,27,0.00,,,0.00,Wunderground v.1.15,2013-03-26 16:25:00,
2013-03-26 12:35:00,57.8,23.1,30.19,North,356,3.0,3.0,26,0.00,,,0.00,Wunderground v.1.15,2013-03-26 16:35:00,
2013-03-26 12:40:00,57.9,25.0,30.19,NW,316,3.0,3.0,28,0.00,,,0.00,Wunderground v.1.15,2013-03-26 16:40:00,
2013-03-26 12:50:00,58.4,22.7,30.19,WNW,297,3.0,3.0,25,0.00,,,0.00,Wunderground v.1.15,2013-03-26 16:50:00,
2013-03-26 12:59:00,58.7,22.9,30.18,West,269,3.0,3.0,25,0.00,,,0.00,Wunderground v.1.15,2013-03-26 16:59:00,
2013-03-26 13:05:00,58.8,23.9,30.18,West,263,3.0,12.0,26,0.00,,,0.00,Wunderground v.1.15,2013-03-26 17:05:00,
2013-03-26 13:15:00,59.6,23.7,30.18,SW,219,3.0,12.0,25,0.00,,,0.00,Wunderground v.1.15,2013-03-26 17:15:00,
2013-03-26 13:20:00,59.7,23.8,30.17,NNW,341,3.0,12.0,25,0.00,,,0.00,Wunderground v.1.15,2013-03-26 17:20:00,
2013-03-26 13:30:00,59.9,22.0,30.17,North,8,4.0,4.0,23,0.00,,,0.00,Wunderground v.1.15,2013-03-26 17:30:00,
2013-03-26 13:35:00,60.0,24.0,30.17,SSW,211,4.0,4.0,25,0.00,,,0.00,Wunderground v.1.15,2013-03-26 17:35:00,
2013-03-26 13:45:00,59.5,19.5,30.17,NW,308,5.0,6.0,21,0.00,,,0.00,Wunderground v.1.15,2013-03-26 17:45:00,
2013-03-26 13:54:00,60.0,24.0,30.17,West,259,4.0,10.0,25,0.00,,,0.00,Wunderground v.1.15,2013-03-26 17:54:00,
2013-03-26 14:00:00,60.1,25.1,30.16,SW,224,4.0,4.0,26,0.00,,,0.00,Wunderground v.1.15,2013-03-26 18:00:00,
2013-03-26 14:10:00,60.8,24.7,30.16,NW,321,3.0,13.0,25,0.00,,,0.00,Wunderground v.1.15,2013-03-26 18:10:00,
2013-03-26 14:20:00,61.7,23.5,30.16,North,4,3.0,13.0,23,0.00,,,0.00,Wunderground v.1.15,2013-03-26 18:20:00,
2013-03-26 14:30:00,61.3,24.2,30.15,SW,217,4.0,8.0,24,0.00,,,0.00,Wunderground v.1.15,2013-03-26 18:30:00,
2013-03-26 14:40:00,60.4,22.4,30.15,SW,224,5.0,5.0,23,0.00,,,0.00,Wunderground v.1.15,2013-03-26 18:40:00,
2013-03-26 14:45:00,60.5,22.5,30.15,NW,318,4.0,5.0,23,0.00,,,0.00,Wunderground v.1.15,2013-03-26 18:45:00,
2013-03-26 14:55:00,60.2,24.2,30.15,South,187,4.0,5.0,25,0.00,,,0.00,Wunderground v.1.15,2013-03-26 18:55:00,
2013-03-26 15:04:00,60.3,22.3,30.15,North,356,4.0,5.0,23,0.00,,,0.00,Wunderground v.1.15,2013-03-26 19:04:00,
2013-03-26 15:10:00,60.4,22.4,30.15,NNW,328,4.0,4.0,23,0.00,,,0.00,Wunderground v.1.15,2013-03-26 19:10:00,
2013-03-26 15:20:00,60.1,22.1,30.15,WNW,291,4.0,13.0,23,0.00,,,0.00,Wunderground v.1.15,2013-03-26 19:20:00,
2013-03-26 15:29:00,60.2,22.2,30.15,SSW,201,4.0,4.0,23,0.00,,,0.00,Wunderground v.1.15,2013-03-26 19:29:00,
2013-03-26 15:35:00,60.0,21.0,30.14,West,278,4.0,4.0,22,0.00,,,0.00,Wunderground v.1.15,2013-03-26 19:35:00,
2013-03-26 15:45:00,59.7,22.8,30.14,NNE,31,5.0,5.0,24,0.00,,,0.00,Wunderground v.1.15,2013-03-26 19:45:00,
2013-03-26 15:55:00,60.1,23.1,30.14,WSW,257,4.0,4.0,24,0.00,,,0.00,Wunderground v.1.15,2013-03-26 19:55:00,
2013-03-26 16:05:00,60.3,23.3,30.14,NW,316,4.0,10.0,24,0.00,,,0.00,Wunderground v.1.15,2013-03-26 20:05:00,
2013-03-26 16:15:00,60.3,26.1,30.14,NNE,30,4.0,10.0,27,0.00,,,0.00,Wunderground v.1.15,2013-03-26 20:15:00,
2013-03-26 16:25:00,59.4,25.4,30.14,NE,56,4.0,10.0,27,0.00,,,0.00,Wunderground v.1.15,2013-03-26 20:25:00,
2013-03-26 16:30:00,59.5,25.5,30.14,NNE,29,4.0,4.0,27,0.00,,,0.00,Wunderground v.1.15,2013-03-26 20:30:00,
2013-03-26 16:40:00,59.1,25.1,30.14,South,186,4.0,4.0,27,0.00,,,0.00,Wunderground v.1.15,2013-03-26 20:40:00,
2013-03-26 16:50:00,59.5,25.5,30.14,SW,214,3.0,5.0,27,0.00,,,0.00,Wunderground v.1.15,2013-03-26 20:50:00,
2013-03-26 17:00:00,59.3,27.0,30.14,SE,129,3.0,4.0,29,0.00,,,0.00,Wunderground v.1.15,2013-03-26 21:00:00,
2013-03-26 17:10:00,58.8,27.4,30.14,NNW,348,3.0,14.0,30,0.00,,,0.00,Wunderground v.1.15,2013-03-26 21:10:00,
2013-03-26 17:20:00,58.0,28.3,30.14,SSW,211,4.0,14.0,32,0.00,,,0.00,Wunderground v.1.15,2013-03-26 21:20:00,
2013-03-26 17:30:00,58.1,28.4,30.14,ESE,122,3.0,3.0,32,0.00,,,0.00,Wunderground v.1.15,2013-03-26 21:30:00,
2013-03-26 17:40:00,57.8,28.1,30.14,WSW,242,3.0,5.0,32,0.00,,,0.00,Wunderground v.1.15,2013-03-26 21:40:00,
2013-03-26 17:50:00,57.9,28.9,30.15,WSW,243,3.0,3.0,33,0.00,,,0.00,Wunderground v.1.15,2013-03-26 21:50:00,
2013-03-26 18:00:00,56.6,28.5,30.15,WNW,302,3.0,3.0,34,0.00,,,0.00,Wunderground v.1.15,2013-03-26 22:00:00,
2013-03-26 18:10:00,56.4,29.1,30.14,NNW,340,2.0,2.0,35,0.00,,,0.00,Wunderground v.1.15,2013-03-26 22:10:00,
2013-03-26 18:20:00,56.4,29.1,30.15,SW,226,2.0,2.0,35,0.00,,,0.00,Wunderground v.1.15,2013-03-26 22:20:00,
2013-03-26 18:30:00,55.4,29.5,30.15,NNE,26,2.0,2.0,37,0.00,,,0.00,Wunderground v.1.15,2013-03-26 22:30:00,
2013-03-26 18:39:00,54.2,29.8,30.16,SW,219,2.0,4.0,39,0.00,,,0.00,Wunderground v.1.15,2013-03-26 22:39:00,
2013-03-26 18:45:00,53.6,29.8,30.16,SSW,210,2.0,4.0,40,0.00,,,0.00,Wunderground v.1.15,2013-03-26 22:45:00,
2013-03-26 18:55:00,52.7,29.0,30.17,WSW,250,1.0,1.0,40,0.00,,,0.00,Wunderground v.1.15,2013-03-26 22:55:00,
2013-03-26 19:05:00,52.0,30.2,30.17,SW,225,1.0,11.0,43,0.00,,,0.00,Wunderground v.1.15,2013-03-26 23:05:00,
2013-03-26 19:10:00,51.7,29.9,30.17,West,267,1.0,11.0,43,0.00,,,0.00,Wunderground v.1.15,2013-03-26 23:10:00,
2013-03-26 19:20:00,50.9,30.8,30.18,NW,326,1.0,11.0,46,0.00,,,0.00,Wunderground v.1.15,2013-03-26 23:20:00,
2013-03-26 19:29:00,50.2,31.2,30.18,WSW,246,1.0,4.0,48,0.00,,,0.00,Wunderground v.1.15,2013-03-26 23:29:00,
2013-03-26 19:35:00,49.8,31.9,30.18,North,1,1.0,4.0,50,0.00,,,0.00,Wunderground v.1.15,2013-03-26 23:35:00,
2013-03-26 19:45:00,48.9,32.0,30.19,SW,236,1.0,2.0,52,0.00,,,0.00,Wunderground v.1.15,2013-03-26 23:45:00,
2013-03-26 19:55:00,48.2,32.3,30.19,South,172,0.0,1.0,54,0.00,,,0.00,Wunderground v.1.15,2013-03-26 23:55:00,
2013-03-26 20:00:00,47.7,32.3,30.20,WSW,238,0.0,1.0,55,0.00,,,0.00,Wunderground v.1.15,2013-03-27 00:00:00,
2013-03-26 20:10:00,47.0,32.1,30.20,SSW,205,0.0,7.0,56,0.00,,,0.00,Wunderground v.1.15,2013-03-27 00:10:00,
2013-03-26 20:20:00,46.2,32.2,30.20,SW,222,0.0,7.0,58,0.00,,,0.00,Wunderground v.1.15,2013-03-27 00:20:00,
2013-03-26 20:30:00,46.0,32.5,30.21,West,276,1.0,1.0,59,0.00,,,0.00,Wunderground v.1.15,2013-03-27 00:30:00,
2013-03-26 20:39:00,45.5,32.4,30.21,SW,221,0.0,0.0,60,0.00,,,0.00,Wunderground v.1.15,2013-03-27 00:39:00,
2013-03-26 20:45:00,45.1,32.4,30.21,SW,236,0.0,0.0,61,0.00,,,0.00,Wunderground v.1.15,2013-03-27 00:45:00,
2013-03-26 20:55:00,44.6,32.4,30.22,WSW,245,0.0,0.0,62,0.00,,,0.00,Wunderground v.1.15,2013-03-27 00:55:00,
2013-03-26 21:05:00,44.1,32.3,30.22,NW,311,0.0,4.0,63,0.00,,,0.00,Wunderground v.1.15,2013-03-27 01:05:00,
2013-03-26 21:15:00,43.6,32.2,30.23,WSW,246,0.0,4.0,64,0.00,,,0.00,Wunderground v.1.15,2013-03-27 01:15:00,
2013-03-26 21:25:00,43.1,32.1,30.23,West,274,0.0,4.0,65,0.00,,,0.00,Wunderground v.1.15,2013-03-27 01:25:00,
2013-03-26 21:35:00,42.8,32.2,30.23,SW,229,0.0,0.0,66,0.00,,,0.00,Wunderground v.1.15,2013-03-27 01:35:00,
2013-03-26 21:45:00,42.3,32.5,30.24,SSW,210,0.0,0.0,68,0.00,,,0.00,Wunderground v.1.15,2013-03-27 01:45:00,
2013-03-26 21:54:00,42.0,32.6,30.24,SW,233,0.0,0.0,69,0.00,,,0.00,Wunderground v.1.15,2013-03-27 01:54:00,
2013-03-26 22:00:00,41.9,32.5,30.25,SW,231,0.0,0.0,69,0.00,,,0.00,Wunderground v.1.15,2013-03-27 02:00:00,
2013-03-26 22:10:00,41.6,32.2,30.25,NW,311,0.0,1.0,69,0.00,,,0.00,Wunderground v.1.15,2013-03-27 02:10:00,
2013-03-26 22:15:00,41.3,32.2,30.25,NW,311,0.0,1.0,70,0.00,,,0.00,Wunderground v.1.15,2013-03-27 02:15:00,
2013-03-26 22:25:00,40.7,32.0,30.25,NW,305,0.0,1.0,71,0.00,,,0.00,Wunderground v.1.15,2013-03-27 02:25:00,
2013-03-26 22:35:00,40.4,32.4,30.25,NW,308,0.0,0.0,73,0.00,,,0.00,Wunderground v.1.15,2013-03-27 02:35:00,
2013-03-26 22:45:00,39.7,31.4,30.25,NW,308,0.0,0.0,72,0.00,,,0.00,Wunderground v.1.15,2013-03-27 02:45:00,
2013-03-26 22:55:00,39.2,31.6,30.26,NW,308,0.0,0.0,74,0.00,,,0.00,Wunderground v.1.15,2013-03-27 02:55:00,
2013-03-26 23:04:00,38.8,31.6,30.26,NW,308,0.0,1.0,75,0.00,,,0.00,Wunderground v.1.15,2013-03-27 03:04:00,
2013-03-26 23:10:00,38.5,31.6,30.26,NW,308,0.0,1.0,76,0.00,,,0.00,Wunderground v.1.15,2013-03-27 03:10:00,
2013-03-26 23:20:00,37.7,31.1,30.26,NW,308,0.0,1.0,77,0.00,,,0.00,Wunderground v.1.15,2013-03-27 03:20:00,
2013-03-26 23:30:00,36.8,30.9,30.27,NW,306,0.0,0.0,79,0.00,,,0.00,Wunderground v.1.15,2013-03-27 03:30:00,
2013-03-26 23:35:00,36.4,30.5,30.27,NW,308,0.0,0.0,79,0.00,,,0.00,Wunderground v.1.15,2013-03-27 03:35:00,
2013-03-26 23:45:00,35.9,30.9,30.27,NW,307,0.0,0.0,82,0.00,,,0.00,Wunderground v.1.15,2013-03-27 03:45:00,
2013-03-26 23:54:00,35.7,31.0,30.27,NW,306,0.0,0.0,83,0.00,,,0.00,Wunderground v.1.15,2013-03-27 03:54:00,